{"data":{"norad_id":57424,"intl_designator":"2023-104A","name":"2023-104A","alt_names":[],"object_type":"PAYLOAD","status":"ACTIVE","operator":null,"country":"PRC","launch_date":"2023-07-23","launch_site_code":"TAISC","launch_vehicle":null,"mission":null,"orbit_class":"UNKNOWN","rcs_meters":null,"size_class":null,"mass_kg":null,"dimensions":null,"purposes":[],"wikipedia_slug":null,"has_3d_model":false,"image_url":null,"decayed_at":null,"tle_current":{"epoch":"2026-05-25T04:22:44.895648Z","epoch_age_seconds":62464,"freshness":"FRESH","line1":"1 57424U 23104A   26145.18246407  .00009812  00000+0  29612-3 0  9994","line2":"2 57424  97.2705 213.7576 0007493 185.0733 175.0435 15.34448633158511","mean_motion":15.34448633,"eccentricity":0.0007493,"inclination_deg":97.2705,"raan_deg":213.7576,"arg_perigee_deg":185.0733,"mean_anomaly_deg":175.0435,"bstar":0.00029612,"rev_number":15851,"period_min":93.844783659174,"perigee_km":457.43296321455,"apogee_km":467.68442978532,"semimajor_km":6840.6956964999,"source":"CELESTRAK","updated_at":"2026-05-25T13:38:00.066050Z"}}}